www.pogodaiklimat.ru

Погода и климат >> Архив погоды >> Саудовская Аравия >> Эд-Даммам


ПОГОДА в Эд-Даммаме

  • Прогноз погоды в Эд-Даммаме
  • Монитор погоды в Эд-Даммаме

АРХИВ ПОГОДЫ в Эд-Даммаме

Время (UTC), дата Ветер
(напр.,м/с)
 
Видим.   Явления Облачность Т
(С)
Тd
(С)
f
(%)
Тe
(С)
Тes
(С)
Комфортность P
(гПа)
Po
(гПа)
Тmin
(С)
Tmax
(С)
R
(мм)
R24
(мм)
S
(см)
00 15.09 нст 2 10 км 1/0
[Ci fib]
+27.1 +7.0 28 +27 +27 жарко 1004.7 1003.3
03 15.09 штиль 0 10 км 1/0
[Ci fib]
+26.2 +7.0 29 +26 +26 жарко 1005.7 1004.3
06 15.09 СЗ 3 10 км ясно +37.2 +7.0 16 +35 +45 очень
жарко
1007.0 1005.6 +24.9
09 15.09 СВ 2 10 км ясно +42.0 +4.0 10 +39 +57 опасность
солнечного
удара
1006.0 1004.6
12 15.09 СВ 7 10 км ясно +41.0 +9.0 15 +39 +42 очень
жарко
1004.8 1003.4
15 15.09 СВ 5 10 км ясно +35.9 +16.0 31 +38 +38 очень
душно
1005.7 1004.3
18 15.09 СВ 2 10 км ясно +30.2 +22.0 62 +39 +39 очень
душно
1007.2 1005.8 +43.3
21 15.09 штиль 0 10 км ясно +26.8 +22.0 75 +35 +35 очень
душно
1006.5 1005.1
00 16.09 ЮЗ 3 8000 м мгла ясно +24.0 +19.0 74 +29 +29 душно 1005.5 1004.1
03 16.09 Ю 3 6000 м мгла 3/0
[Ac trans]
+22.6 +17.0 71 +27 +27 душно 1006.6 1005.2
06 16.09 нст 1 9000 м мгла 5/0
[Ci sp]
+33.4 +21.0 48 +41 +52 опасность
перегрева
1007.9 1006.5 +21.8
09 16.09 С 4 10 км 3/0
[Ci sp]
+40.7 +6.0 12 +38 +49 очень
жарко
1006.7 1005.3
12 16.09 СВ 5 10 км ясно +39.1 +17.0 27 +41 +45 опасность
перегрева
1005.2 1003.8
15 16.09 СВ 4 10 км 5/0
[Ci fib]
+35.6 +19.0 38 +40 +40 очень
душно
1005.1 1003.7
18 16.09 ЮВ 3 8000 м мгла 5/0
[Ci fib]
+30.3 +21.0 58 +38 +38 очень
душно
1006.0 1004.6 +42.0
21 16.09 Ю 3 10 км 5/0
[Ci sp]
+28.1 +20.0 61 +34 +34 очень
душно
1005.3 1003.9
00 17.09 Ю 2 10 км 4/0
[Ci sp]
+25.0 +19.0 69 +30 +30 душно 1004.4 1003.0
03 17.09 С 4 10 км 4/0
[Ci sp]
+25.3 +19.0 68 +30 +30 душно 1005.8 1004.4
06 17.09 штиль 0 10 км 3/0
[Ac trans]
+36.0 +16.0 31 +38 +50 очень
душно
1007.5 1006.1 +24.5
09 17.09 З 2 10 км 4/0
[Ci sp]
+40.4 +11.0 17 +39 +57 опасность
солнечного
удара
1005.7 1004.3
12 17.09 СВ 2 10 км ясно +43.8 +6.0 10 +41 +49 опасность
перегрева
1003.2 1001.8
15 17.09 СВ 3 8000 м пыль 3/0
[Ci fib]
+38.3 +13.0 22 +38 +38 очень
жарко
1003.0 1001.6
18 17.09 В 2 8000 м мгла 3/0
[Ci fib]
+32.1 +24.0 62 +44 +44 опасность
перегрева
1004.8 1003.4 +43.9
21 17.09 ЮЗ 4 10 км ясно +29.5 +15.0 41 +32 +32 душно 1004.1 1002.7
00 18.09 нст 1 10 км 3/0
[Ci fib]
+27.0 +16.0 51 +30 +30 душно 1004.1 1002.7
03 18.09 З 4 10 км 3/0
[Ci fib]
+27.3 +14.0 44 +29 +30 жарко 1005.7 1004.3
06 18.09 СЗ 5 10 км 4/0
[Ci fib]
+35.9 +6.0 16 +33 +38 жарко 1006.9 1005.5 +26.4
09 18.09 СЗ 3 10 км 4/0
[Cs]
+43.6 +5.0 10 +41 +54 опасность
перегрева
1005.3 1003.9
12 18.09 СВ 7 8000 м пыльный позёмок 3/0
[Cs]
+43.6 +10.0 14 +42 +44 опасность
перегрева
1003.6 1002.2
15 18.09 В 4 7000 м пыль 5/0
[Ci sp]
+36.6 +17.0 31 +39 +39 очень
душно
1004.7 1003.3
18 18.09 штиль 0 10 км 1/0
[Ci fib]
+32.8 +19.0 44 +38 +38 очень
душно
1006.1 1004.7 +45.3
21 18.09 Ю 2 10 км ясно +28.8 +13.0 38 +30 +30 жарко 1005.6 1004.2
00 19.09 нст 2 10 км ясно +27.1 +13.0 42 +29 +29 жарко 1005.3 1003.9
03 19.09 штиль 0 10 км ясно +25.0 +11.0 41 +26 +26 жарко 1006.8 1005.4
06 19.09 С 5 10 км ясно +35.1 +17.0 34 +38 +43 очень
душно
1007.9 1006.5 +24.9
09 19.09 С 5 10 км ясно +40.2 +20.0 31 +45 +55 опасность
перегрева
1006.5 1005.1
12 19.09 С 4 10 км ясно +40.6 +20.0 31 +46 +51 опасность
перегрева
1005.2 1003.8
15 19.09 С 5 8000 м пыль ясно +35.9 +22.0 45 +44 +44 опасность
перегрева
1005.8 1004.4
18 19.09 нст 2 10 км ясно +31.5 +24.0 65 +43 +43 опасность
перегрева
1007.1 1005.7 +40.9
21 19.09 С 2 10 км ясно +29.0 +24.0 74 +40 +40 очень
душно
1006.5 1005.1
00 20.09 З 3 10 км ясно +27.1 +22.0 74 +35 +35 очень
душно
1006.0 1004.6
03 20.09 СЗ 5 10 км ясно +26.4 +15.0 50 +29 +29 жарко 1007.0 1005.6
06 20.09 С 5 10 км ясно +35.7 +17.0 33 +39 +44 очень
душно
1008.2 1006.8 +26.1
09 20.09 С 5 10 км ясно +40.8 +11.0 17 +40 +49 очень
жарко
1006.2 1004.8
12 20.09 СВ 5 10 км ясно +41.0 +9.0 15 +39 +43 очень
жарко
1004.7 1003.3
15 20.09 В 4 10 км ясно +36.0 +11.0 22 +35 +35 очень
жарко
1004.4 1003.0
18 20.09 Ю 3 10 км ясно +31.5 +9.0 25 +31 +31 жарко 1005.5 1004.1 +41.6
21 20.09 Ю 4 10 км ясно +27.9 +19.0 58 +33 +33 очень
душно
1004.4 1003.0
00 21.09 Ю 4 10 км ясно +26.3 +18.0 60 +31 +31 душно 1003.5 1002.1
03 21.09 Ю 3 10 км ясно +25.0 +10.0 39 +26 +26 жарко 1004.0 1002.6
06 21.09 З 4 10 км ясно +35.6 +2.0 12 +32 +40 жарко 1004.7 1003.3 +25.0
09 21.09 нст 1 10 км ясно +41.1 +2.0 9 +38 +58 опасность
солнечного
удара
1003.2 1001.8
12 21.09 нст 1 10 км ясно +43.1 +2.0 8 +40 +48 очень
жарко
1001.2 999.8
15 21.09 В 3 10 км ясно +37.9 +14.0 24 +38 +38 очень
жарко
1001.4 1000.0
18 21.09 СВ 2 10 км ясно +31.6 +21.0 53 +39 +39 очень
душно
1003.2 1001.8 +44.0
21 21.09 штиль 0 10 км ясно +29.4 +25.0 77 +42 +42 опасность
перегрева
1002.8 1001.4

 

Местоположение метеостанции Эд-Даммам (Саудовская Аравия): широта 26.45 долгота 49.82 высота над уровнем моря 12 м.

В архиве по умолчанию представлена погода в Эд-Даммаме за последнюю неделю. Архивные данные за месяц целиком и за предыдущие месяцы, начиная с января 2011 года, Вы можете получить, выбрав интересующий диапазон дат из раскрывающегося списка и нажав кнопку "Ввод!".


*Определитесь, кто Вы:
робот инопланетянин человек

Внимание! Время в таблицах - всемирное. Для получения местного времени необходимо прибавить поправку, которая равна 3 ч.

Смотрите также архив погоды в соседних городах и на ближайших метеорологических станциях:

Погода в Дахране (Саудовская Аравия) (40 км)
Погода в Бахрейне (Бахрейн) (85 км)
Погода в Эль-Хуфуфе (Саудовская Аравия) (132 км)
Погода в Духане (Катар) (149 км)
Погода в Абу Самба (Катар) (214 км)
Погода в Дохе (Катар) (220 км)
Погода в Аэропорту Хамад (Катар) (222 км)
Погода в Доха порту (Катар) (235 км)
Погода в Нувасибе (Кувейт) (251 км)
Погода в Бендер-Дейере (Иран) (259 км)

Пояснения к столбцам:

Ветер - указаны скорость ветра в м/с - средняя за 10 мин, порывы в срок и между сроками (в фигурных скобках) и направление, откуда дует ветер: С - северный, СВ - северо-восточный, В - восточный, ЮВ - юго-восточный, Ю - южный, ЮЗ - юго-западный, З - западный, СЗ - северо-западный.
Видимость - горизонтальная дальность видимости в метрах или километрах. При видимости от 1 до 10 км при отсутствии осадков обычно наблюдается дымка, при ухудшении видимости до 1 км и менее - туман. В сухую погоду видимость может ухудшаться дымом, пылью или мглою.
Явления - указаны атмосферные явления, наблюдавшиеся в срок или в последний час перед сроком; фигурными скобками обозначены явления, наблюдавшиеся между сроками (за 1-3 часа до срока); квадратными скобками обозначены град или гололедные отложения с указанием их диаметра в мм.
Облачность - указаны через наклонную черту общая и нижняя облачность в баллах и высота нижней границы облаков в метрах; квадратными скобками обозначены формы облаков: Ci - перистые, Cs - перисто-слоистые, Cc - перисто-кучевые, Ac - высококучевые, As - высокослоистые, Sc - слоисто-кучевые, Ns - слоисто-дождевые, Cu - кучевые, Cb - кучево-дождевые. Подробнее классификацию облаков см. в Атласе облаков (PDF).
T - Температура воздуха - температура, измеренная на высоте 2 м над землей.
Td - Температура точки росы - температура, при понижении до которой содержащийся в воздухе водяной пар достигнет насыщения.
f - Относительная влажность воздуха - влажноcть воздуха, измеренная на высоте 2 м над землей.
Te - Эффективная температура - температура, которую ощущает одетый по сезону человек в тени. Характеристика душности погоды. При расчете учитывается влияние влажности воздуха и скорости ветра на теплоощущения человека.
Tes - Эффективная температура на солнце - температура, которую ощущает человек, с поправкой на солнечный нагрев. Характеристика знойности погоды. Зависит от высоты солнца над горизонтом, облачности и скорости ветра. Ночью, в пасмурную погоду, а также при ветре 12 м/с и более поправка равна нулю.
P - Атмосферное давление - приведенное к уровню моря атмосферное давление.
Po - Атмосферное давление - измеренное на уровне метеостанции атмосферное давление.
Tmin - Минимальная температура - минимум температуры воздуха на высоте 2 м над землей.
Tmax - Максимальная температура - максимум температуры воздуха на высоте 2 м над землей.
R - Количество осадков - Количество выпавших осадков за период времени, мм. При наведении курсора мыши на число - период времени, за который выпало указанное количество осадков.
R24 - Количество осадков - Количество выпавших осадков за 24 часа, мм.
S - Снежный покров - Высота снежного покрова, см. При наведении курсора мыши на число - состояние снежного покрова и степень покрытия местности в баллах.